QPF
0.00 0.00 0.00 0.00 0.00 0.00 0.00 0.00 0.00 0.00 0.00 0.00 0.00 0.00 0.00 0.00 0.00 0.00 0.00 0.00 0.00 0.00 0.00 0.00 0.00 0.00 0.00 0.00 0.00 0.00 0.00 0.01 0.01 0.01 0.01 0.01 0.01 0.02 0.02 0.02 0.03 0.04 0.04 0.03
0.01 0.00 0.00 0.00 0.00 0.00 0.00 0.00 0.00 0.00 0.00 0.00 0.00 0.00 0.00 0.00 0.00 0.00 0.00 0.00 0.00 0.00 0.00 0.00 0.00 0.00 0.00 0.00 0.00 0.00 0.00 0.01 0.01 0.01 0.01 0.01 0.01 0.01 0.01 0.01 0.02 0.04 0.05 0.04
0.01 0.00 0.00 0.00 0.00 0.00 0.00 0.00 0.00 0.00 0.00 0.00 0.00 0.00 0.00 0.00 0.00 0.00 0.00 0.00 0.00 0.00 0.00 0.00 0.00 0.00 0.00 0.00 0.00 0.00 0.00 0.00 0.01 0.01 0.01 0.01 0.01 0.01 0.01 0.02 0.02 0.02 0.04 0.05
0.00 0.00 0.00 0.00 0.00 0.00 0.00 0.00 0.00 0.00 0.00 0.00 0.00 0.00 0.00 0.00 0.00 0.00 0.00 0.00 0.00 0.00 0.00 0.00 0.00 0.00 0.00 0.00 0.00 0.00 0.00 0.01 0.01 0.01 0.01 0.02 0.02 0.02 0.02 0.02 0.01 0.01 0.02 0.03
0.01 0.00 0.00 0.00 0.00 0.00 0.00 0.00 0.00 0.00 0.00 0.00 0.00 0.00 0.00 0.00 0.00 0.00 0.00 0.00 0.00 0.00 0.00 0.00 0.00 0.00 0.00 0.00 0.00 0.00 0.00 0.01 0.01 0.01 0.01 0.01 0.01 0.01 0.01 0.01 0.01 0.01 0.01 0.02
0.00 0.00 0.00 0.00 0.00 0.00 0.00 0.00 0.00 0.00 0.01 0.01 0.00 0.00 0.01 0.00 0.00 0.00 0.00 0.00 0.00 0.00 0.00 0.00 0.00 0.00 0.00 0.00 0.00 0.00 0.00 0.01 0.01 0.01 0.02 0.02 0.02 0.02 0.02 0.02 0.02 0.02 0.02 0.01
0.01 0.01 0.00 0.00 0.00 0.00 0.00 0.01 0.02 0.02 0.01 0.01 0.00 0.00 0.01 0.01 0.00 0.00 0.00 0.00 0.00 0.00 0.00 0.00 0.00 0.00 0.00 0.00 0.00 0.00 0.00 0.00 0.00 0.01 0.02 0.02 0.02 0.02 0.03 0.03 0.03 0.03 0.03 0.02
0.01 0.01 0.01 0.00 0.00 0.00 0.00 0.01 0.01 0.01 0.01 0.00 0.00 0.01 0.01 0.00 0.00 0.00 0.00 0.00 0.01 0.01 0.00 0.00 0.00 0.00 0.00 0.00 0.00 0.00 0.00 0.00 0.00 0.00 0.01 0.01 0.02 0.01 0.02 0.03 0.04 0.03 0.03 0.02
0.02 0.01 0.00 0.00 0.00 0.00 0.01 0.01 0.01 0.02 0.02 0.01 0.01 0.01 0.01 0.00 0.00 0.00 0.00 0.01 0.01 0.01 0.01 0.00 0.00 0.00 0.00 0.00 0.00 0.00 0.00 0.00 0.00 0.00 0.00 0.01 0.02 0.02 0.02 0.03 0.03 0.04 0.03 0.02
0.03 0.02 0.01 0.00 0.01 0.01 0.01 0.02 0.02 0.04 0.04 0.02 0.01 0.00 0.00 0.00 0.00 0.01 0.01 0.01 0.01 0.01 0.01 0.00 0.00 0.00 0.00 0.00 0.00 0.00 0.00 0.00 0.00 0.01 0.01 0.01 0.01 0.02 0.03 0.03 0.03 0.03 0.03 0.03
0.02 0.03 0.01 0.01 0.01 0.01 0.01 0.02 0.03 0.04 0.04 0.03 0.01 0.01 0.01 0.01 0.01 0.01 0.01 0.01 0.01 0.01 0.01 0.01 0.01 0.01 0.00 0.00 0.01 0.01 0.01 0.00 0.00 0.01 0.00 0.00 0.01 0.01 0.01 0.02 0.02 0.02 0.03 0.03
0.02 0.03 0.01 0.01 0.00 0.01 0.01 0.01 0.01 0.03 0.02 0.02 0.01 0.01 0.00 0.00 0.01 0.01 0.01 0.01 0.01 0.01 0.01 0.01 0.01 0.01 0.01 0.01 0.01 0.01 0.01 0.00 0.00 0.00 0.00 0.00 0.00 0.00 0.01 0.01 0.01 0.02 0.02 0.02
0.02 0.02 0.02 0.01 0.01 0.01 0.01 0.01 0.01 0.03 0.03 0.03 0.02 0.01 0.00 0.00 0.01 0.01 0.01 0.01 0.01 0.01 0.01 0.01 0.01 0.01 0.01 0.01 0.01 0.01 0.01 0.01 0.00 0.00 0.00 0.00 0.00 0.00 0.01 0.01 0.01 0.01 0.01 0.01
0.02 0.03 0.02 0.01 0.01 0.01 0.01 0.01 0.01 0.02 0.04 0.03 0.01 0.01 0.01 0.01 0.01 0.01 0.01 0.01 0.01 0.01 0.01 0.01 0.01 0.01 0.01 0.01 0.01 0.01 0.01 0.01 0.01 0.01 0.01 0.01 0.01 0.01 0.01 0.01 0.01 0.01 0.01 0.01
0.02 0.02 0.01 0.00 0.00 0.00 0.00 0.00 0.01 0.02 0.02 0.02 0.01 0.01 0.01 0.01 0.01 0.01 0.01 0.01 0.01 0.01 0.01 0.01 0.01 0.01 0.01 0.01 0.01 0.01 0.01 0.01 0.01 0.01 0.01 0.01 0.01 0.01 0.01 0.01 0.01 0.01 0.01 0.01
0.01 0.01 0.01 0.00 0.00 0.00 0.00 0.00 0.00 0.00 0.00 0.01 0.01 0.01 0.00 0.01 0.01 0.01 0.01 0.01 0.01 0.01 0.01 0.01 0.01 0.01 0.01 0.01 0.01 0.01 0.01 0.01 0.01 0.01 0.01 0.01 0.01 0.01 0.01 0.01 0.01 0.01 0.01 0.01
0.01 0.02 0.02 0.01 0.00 0.01 0.01 0.00 0.00 0.00 0.00 0.00 0.00 0.00 0.00 0.00 0.00 0.01 0.00 0.00 0.01 0.01 0.01 0.01 0.01 0.01 0.01 0.01 0.01 0.01 0.01 0.01 0.01 0.01 0.01 0.01 0.01 0.01 0.01 0.01 0.01 0.01 0.01 0.01
0.02 0.02 0.03 0.03 0.01 0.01 0.00 0.00 0.00 0.00 0.00 0.00 0.00 0.00 0.00 0.00 0.00 0.01 0.00 0.00 0.00 0.01 0.01 0.01 0.01 0.01 0.01 0.01 0.01 0.01 0.01 0.01 0.01 0.01 0.02 0.02 0.02 0.01 0.01 0.01 0.01 0.01 0.01 0.01
0.01 0.03 0.04 0.04 0.02 0.01 0.00 0.00 0.00 0.00 0.00 0.00 0.00 0.00 0.00 0.00 0.00 0.00 0.00 0.00 0.01 0.01 0.01 0.01 0.01 0.01 0.01 0.01 0.01 0.01 0.01 0.01 0.01 0.01 0.01 0.01 0.01 0.01 0.01 0.01 0.01 0.01 0.01 0.01
0.01 0.03 0.05 0.04 0.03 0.01 0.00 0.00 0.00 0.00 0.00 0.00 0.00 0.00 0.00 0.00 0.00 0.00 0.00 0.00 0.01 0.01 0.01 0.01 0.01 0.01 0.01 0.01 0.01 0.01 0.01 0.01 0.02 0.02 0.01 0.01 0.01 0.01 0.01 0.01 0.01 0.01 0.01 0.01
0.01 0.03 0.04 0.03 0.02 0.01 0.00 0.00 0.00 0.01 0.01 0.00 0.00 0.01 0.01 0.01 0.01 0.00 0.00 0.01 0.01 0.01 0.01 0.01 0.01 0.01 0.01 0.01 0.01 0.01 0.01 0.01 0.01 0.01 0.01 0.01 0.01 0.01 0.01 0.01 0.01 0.01 0.01 0.01
0.01 0.01 0.02 0.02 0.04 0.02 0.01 0.01 0.01 0.01 0.01 0.01 0.01 0.01 0.01 0.01 0.01 0.01 0.01 0.01 0.01 0.01 0.01 0.01 0.01 0.01 0.01 0.01 0.01 0.01 0.01 0.01 0.01 0.01 0.01 0.01 0.01 0.01 0.01 0.01 0.01 0.01 0.01 0.01
0.01 0.01 0.01 0.01 0.01 0.01 0.01 0.01 0.01 0.01 0.01 0.01 0.01 0.01 0.01 0.01 0.01 0.01 0.01 0.01 0.01 0.01 0.01 0.01 0.01 0.01 0.01 0.01 0.01 0.01 0.01 0.01 0.01 0.01 0.01 0.01 0.01 0.01 0.01 0.01 0.01 0.01 0.01 0.01
0.01 0.01 0.01 0.01 0.01 0.01 0.01 0.01 0.01 0.01 0.01 0.01 0.01 0.01 0.01 0.01 0.01 0.01 0.01 0.01 0.01 0.01 0.01 0.01 0.01 0.01 0.01 0.01 0.01 0.01 0.01 0.01 0.01 0.01 0.01 0.01 0.01 0.01 0.01 0.01 0.01 0.01 0.01 0.01
0.01 0.01 0.01 0.01 0.01 0.01 0.01 0.01 0.01 0.01 0.01 0.01 0.01 0.01 0.01 0.01 0.01 0.01 0.01 0.01 0.01 0.01 0.01 0.01 0.01 0.01 0.01 0.01 0.01 0.01 0.01 0.01 0.01 0.01 0.01 0.01 0.01 0.01 0.01 0.01 0.01 0.01 0.01 0.01
0.01 0.01 0.01 0.01 0.01 0.01 0.01 0.01 0.01 0.01 0.01 0.01 0.01 0.01 0.01 0.01 0.01 0.02 0.02 0.01 0.01 0.01 0.01 0.00 0.01 0.01 0.01 0.01 0.01 0.01 0.01 0.01 0.01 0.01 0.01 0.01 0.01 0.01 0.01 0.01 0.01 0.01 0.01 0.01
MSLP
1023.22 1023.72 1024.21 1024.68 1025.13 1025.57 1026.02 1026.52 1027.10 1027.79 1028.60 1029.53 1030.54 1031.58 1032.59 1033.51 1034.30 1034.93 1035.39 1035.72 1035.94 1036.12 1036.28 1036.47 1036.69 1036.93 1037.17 1037.39 1037.55 1037.64 1037.67 1037.65 1037.62 1037.59 1037.60 1037.65 1037.74 1037.83 1037.91 1037.93 1037.87 1037.72 1037.49 1037.20
1023.61 1024.05 1024.50 1024.93 1025.37 1025.81 1026.28 1026.80 1027.41 1028.11 1028.90 1029.77 1030.68 1031.58 1032.44 1033.20 1033.84 1034.36 1034.76 1035.08 1035.35 1035.61 1035.89 1036.20 1036.55 1036.89 1037.22 1037.49 1037.69 1037.81 1037.86 1037.87 1037.86 1037.87 1037.92 1038.00 1038.10 1038.21 1038.27 1038.26 1038.17 1037.98 1037.71 1037.40
1023.93 1024.33 1024.75 1025.18 1025.63 1026.11 1026.62 1027.19 1027.83 1028.51 1029.25 1030.00 1030.75 1031.45 1032.09 1032.64 1033.09 1033.47 1033.80 1034.11 1034.44 1034.81 1035.23 1035.71 1036.20 1036.68 1037.12 1037.48 1037.75 1037.92 1038.02 1038.07 1038.10 1038.15 1038.23 1038.34 1038.46 1038.56 1038.60 1038.56 1038.43 1038.20 1037.91 1037.58
1024.19 1024.57 1024.98 1025.43 1025.92 1026.45 1027.02 1027.64 1028.28 1028.93 1029.56 1030.15 1030.68 1031.14 1031.51 1031.81 1032.06 1032.30 1032.56 1032.88 1033.28 1033.79 1034.38 1035.03 1035.69 1036.34 1036.91 1037.38 1037.73 1037.98 1038.13 1038.23 1038.32 1038.41 1038.53 1038.66 1038.78 1038.87 1038.89 1038.82 1038.66 1038.40 1038.08 1037.73
1024.42 1024.78 1025.19 1025.67 1026.20 1026.79 1027.42 1028.05 1028.67 1029.24 1029.73 1030.13 1030.41 1030.59 1030.69 1030.75 1030.81 1030.93 1031.14 1031.50 1032.01 1032.66 1033.43 1034.27 1035.12 1035.92 1036.63 1037.22 1037.66 1037.99 1038.21 1038.37 1038.50 1038.63 1038.77 1038.92 1039.05 1039.13 1039.13 1039.04 1038.85 1038.57 1038.23 1037.87
1024.61 1024.96 1025.38 1025.89 1026.46 1027.10 1027.75 1028.37 1028.93 1029.38 1029.70 1029.86 1029.89 1029.81 1029.66 1029.51 1029.42 1029.47 1029.69 1030.11 1030.75 1031.57 1032.53 1033.55 1034.58 1035.53 1036.37 1037.06 1037.59 1037.98 1038.26 1038.46 1038.64 1038.80 1038.96 1039.11 1039.24 1039.30 1039.29 1039.19 1038.98 1038.69 1038.35 1037.98
1024.75 1025.10 1025.54 1026.07 1026.68 1027.33 1027.97 1028.54 1028.99 1029.29 1029.41 1029.35 1029.13 1028.82 1028.47 1028.18 1028.01 1028.05 1028.33 1028.87 1029.66 1030.66 1031.80 1032.99 1034.17 1035.25 1036.18 1036.95 1037.54 1037.98 1038.29 1038.53 1038.72 1038.90 1039.07 1039.22 1039.33 1039.39 1039.36 1039.25 1039.04 1038.75 1038.41 1038.05
1024.84 1025.20 1025.66 1026.22 1026.84 1027.47 1028.05 1028.53 1028.85 1028.97 1028.88 1028.61 1028.19 1027.70 1027.22 1026.86 1026.70 1026.80 1027.20 1027.89 1028.85 1030.02 1031.32 1032.66 1033.94 1035.10 1036.10 1036.90 1037.52 1037.98 1038.32 1038.56 1038.76 1038.94 1039.10 1039.23 1039.32 1039.36 1039.32 1039.20 1039.00 1038.73 1038.40 1038.05
1024.86 1025.25 1025.74 1026.32 1026.92 1027.51 1028.01 1028.36 1028.51 1028.44 1028.16 1027.69 1027.12 1026.52 1025.99 1025.65 1025.56 1025.79 1026.34 1027.22 1028.35 1029.68 1031.11 1032.54 1033.89 1035.09 1036.11 1036.92 1037.54 1038.00 1038.33 1038.57 1038.76 1038.92 1039.05 1039.16 1039.23 1039.24 1039.19 1039.06 1038.87 1038.61 1038.31 1037.98
1024.81 1025.25 1025.78 1026.36 1026.94 1027.46 1027.85 1028.04 1028.01 1027.75 1027.28 1026.67 1025.99 1025.35 1024.85 1024.59 1024.63 1025.03 1025.77 1026.82 1028.12 1029.58 1031.10 1032.58 1033.95 1035.15 1036.15 1036.94 1037.54 1037.99 1038.31 1038.54 1038.71 1038.85 1038.96 1039.03 1039.06 1039.04 1038.96 1038.83 1038.64 1038.40 1038.12 1037.81
1024.71 1025.20 1025.76 1026.35 1026.88 1027.31 1027.56 1027.59 1027.37 1026.93 1026.30 1025.58 1024.85 1024.22 1023.79 1023.66 1023.88 1024.47 1025.39 1026.61 1028.04 1029.59 1031.15 1032.65 1034.00 1035.17 1036.14 1036.90 1037.49 1037.92 1038.24 1038.47 1038.63 1038.75 1038.83 1038.86 1038.85 1038.79 1038.69 1038.53 1038.34 1038.12 1037.85 1037.56
1024.59 1025.13 1025.70 1026.26 1026.72 1027.03 1027.13 1026.98 1026.58 1025.97 1025.22 1024.42 1023.68 1023.10 1022.79 1022.82 1023.21 1023.98 1025.07 1026.42 1027.95 1029.54 1031.12 1032.60 1033.92 1035.05 1035.99 1036.73 1037.32 1037.77 1038.10 1038.35 1038.52 1038.64 1038.69 1038.69 1038.64 1038.54 1038.39 1038.22 1038.01 1037.78 1037.53 1037.25
1024.49 1025.03 1025.59 1026.08 1026.44 1026.60 1026.53 1026.20 1025.62 1024.87 1024.02 1023.18 1022.46 1021.96 1021.77 1021.96 1022.52 1023.45 1024.68 1026.12 1027.70 1029.32 1030.88 1032.32 1033.61 1034.72 1035.64 1036.40 1037.02 1037.51 1037.89 1038.19 1038.39 1038.52 1038.57 1038.54 1038.45 1038.30 1038.12 1037.90 1037.68 1037.44 1037.19 1036.92
1024.42 1024.93 1025.40 1025.78 1025.99 1025.98 1025.72 1025.20 1024.46 1023.59 1022.67 1021.82 1021.15 1020.74 1020.69 1021.02 1021.74 1022.79 1024.11 1025.62 1027.23 1028.83 1030.37 1031.79 1033.06 1034.16 1035.11 1035.92 1036.60 1037.17 1037.63 1037.99 1038.25 1038.41 1038.46 1038.42 1038.30 1038.11 1037.88 1037.63 1037.37 1037.12 1036.86 1036.58
1024.40 1024.80 1025.13 1025.34 1025.35 1025.13 1024.67 1023.97 1023.09 1022.13 1021.17 1020.34 1019.74 1019.44 1019.52 1019.99 1020.83 1021.98 1023.37 1024.91 1026.52 1028.12 1029.64 1031.04 1032.31 1033.44 1034.44 1035.33 1036.10 1036.78 1037.34 1037.79 1038.11 1038.31 1038.37 1038.32 1038.17 1037.95 1037.68 1037.40 1037.11 1036.83 1036.55 1036.27
1024.39 1024.61 1024.75 1024.73 1024.51 1024.06 1023.39 1022.53 1021.54 1020.52 1019.56 1018.79 1018.28 1018.11 1018.31 1018.91 1019.85 1021.08 1022.51 1024.07 1025.68 1027.26 1028.77 1030.18 1031.48 1032.67 1033.75 1034.73 1035.61 1036.39 1037.05 1037.58 1037.97 1038.20 1038.28 1038.23 1038.06 1037.81 1037.51 1037.20 1036.88 1036.58 1036.29 1035.98
1024.32 1024.33 1024.22 1023.94 1023.47 1022.80 1021.95 1020.95 1019.89 1018.86 1017.96 1017.27 1016.88 1016.85 1017.19 1017.90 1018.93 1020.21 1021.68 1023.25 1024.85 1026.43 1027.95 1029.38 1030.72 1031.98 1033.14 1034.22 1035.20 1036.07 1036.81 1037.40 1037.83 1038.08 1038.17 1038.11 1037.93 1037.66 1037.34 1037.01 1036.68 1036.36 1036.05 1035.72
1024.10 1023.88 1023.53 1023.00 1022.31 1021.44 1020.45 1019.38 1018.30 1017.32 1016.51 1015.96 1015.72 1015.83 1016.30 1017.12 1018.22 1019.55 1021.04 1022.61 1024.21 1025.79 1027.32 1028.78 1030.18 1031.49 1032.73 1033.88 1034.93 1035.86 1036.63 1037.25 1037.68 1037.93 1038.01 1037.94 1037.75 1037.47 1037.15 1036.81 1036.47 1036.14 1035.81 1035.47
1023.68 1023.26 1022.69 1021.97 1021.10 1020.11 1019.05 1017.97 1016.96 1016.08 1015.42 1015.03 1014.96 1015.23 1015.83 1016.73 1017.90 1019.25 1020.74 1022.30 1023.89 1025.47 1027.01 1028.50 1029.93 1031.29 1032.57 1033.76 1034.83 1035.76 1036.53 1037.11 1037.52 1037.73 1037.78 1037.69 1037.49 1037.22 1036.90 1036.57 1036.24 1035.90 1035.56 1035.19
1023.01 1022.46 1021.76 1020.92 1019.97 1018.95 1017.91 1016.90 1016.01 1015.30 1014.83 1014.63 1014.73 1015.15 1015.86 1016.84 1018.03 1019.39 1020.87 1022.40 1023.97 1025.53 1027.07 1028.57 1030.01 1031.38 1032.67 1033.84 1034.89 1035.77 1036.48 1037.00 1037.33 1037.49 1037.50 1037.38 1037.17 1036.91 1036.61 1036.30 1035.98 1035.64 1035.29 1034.89
1022.13 1021.53 1020.80 1019.95 1019.02 1018.07 1017.14 1016.29 1015.59 1015.09 1014.82 1014.82 1015.09 1015.64 1016.43 1017.45 1018.65 1019.98 1021.40 1022.89 1024.41 1025.94 1027.46 1028.93 1030.36 1031.71 1032.96 1034.09 1035.06 1035.86 1036.47 1036.89 1037.13 1037.21 1037.17 1037.02 1036.81 1036.56 1036.28 1035.99 1035.69 1035.36 1034.99 1034.56
1021.11 1020.57 1019.90 1019.15 1018.35 1017.56 1016.82 1016.20 1015.73 1015.46 1015.41 1015.59 1016.01 1016.64 1017.48 1018.50 1019.66 1020.93 1022.28 1023.69 1025.14 1026.61 1028.08 1029.51 1030.89 1032.19 1033.37 1034.42 1035.29 1035.97 1036.46 1036.77 1036.91 1036.91 1036.81 1036.64 1036.43 1036.19 1035.94 1035.68 1035.39 1035.06 1034.67 1034.20
1020.09 1019.67 1019.16 1018.59 1018.00 1017.44 1016.95 1016.58 1016.37 1016.33 1016.48 1016.82 1017.34 1018.03 1018.88 1019.85 1020.94 1022.11 1023.37 1024.68 1026.04 1027.42 1028.82 1030.19 1031.50 1032.72 1033.82 1034.76 1035.52 1036.09 1036.45 1036.65 1036.69 1036.62 1036.47 1036.28 1036.07 1035.85 1035.62 1035.38 1035.10 1034.76 1034.34 1033.83
1019.19 1018.95 1018.64 1018.30 1017.96 1017.67 1017.45 1017.35 1017.37 1017.55 1017.86 1018.32 1018.91 1019.62 1020.44 1021.34 1022.33 1023.40 1024.53 1025.73 1026.98 1028.27 1029.58 1030.86 1032.10 1033.23 1034.23 1035.07 1035.72 1036.17 1036.43 1036.52 1036.48 1036.36 1036.17 1035.96 1035.75 1035.55 1035.34 1035.10 1034.82 1034.47 1034.02 1033.47
1018.54 1018.49 1018.39 1018.28 1018.20 1018.16 1018.20 1018.33 1018.57 1018.92 1019.37 1019.91 1020.53 1021.23 1021.99 1022.82 1023.71 1024.66 1025.68 1026.76 1027.91 1029.10 1030.31 1031.50 1032.64 1033.68 1034.58 1035.32 1035.86 1036.22 1036.39 1036.40 1036.31 1036.14 1035.93 1035.71 1035.50 1035.30 1035.09 1034.86 1034.56 1034.19 1033.71 1033.11
1018.20 1018.30 1018.39 1018.49 1018.62 1018.81 1019.05 1019.38 1019.78 1020.25 1020.79 1021.39 1022.03 1022.71 1023.43 1024.18 1024.98 1025.84 1026.76 1027.74 1028.79 1029.88 1030.99 1032.09 1033.13 1034.07 1034.87 1035.51 1035.97 1036.24 1036.34 1036.30 1036.16 1035.96 1035.74 1035.51 1035.30 1035.09 1034.88 1034.63 1034.31 1033.91 1033.40 1032.78
Thickness
5544 5535 5530 5533 5535 5539 5533 5529 5528 5529 5528 5524 5523 5525 5530 5525 5519 5518 5517 5517 5519 5522 5522 5521 5521 5521 5520 5521 5521 5522 5523 5522 5522 5521 5520 5520 5519 5519 5518 5518 5518 5519 5520 5521
5526 5523 5527 5528 5525 5523 5519 5516 5514 5513 5513 5511 5506 5510 5516 5514 5513 5513 5512 5511 5512 5511 5511 5511 5510 5510 5510 5510 5510 5511 5512 5511 5512 5511 5510 5509 5508 5507 5506 5506 5506 5507 5508 5509
5517 5517 5519 5518 5512 5511 5507 5504 5504 5502 5497 5496 5494 5507 5508 5508 5504 5506 5506 5506 5504 5503 5502 5501 5500 5499 5498 5499 5499 5501 5500 5500 5500 5500 5499 5497 5495 5494 5493 5494 5494 5494 5495 5496
5502 5503 5507 5505 5501 5499 5499 5499 5495 5490 5485 5479 5481 5487 5502 5498 5495 5497 5496 5494 5494 5494 5493 5491 5490 5488 5488 5488 5488 5488 5488 5488 5488 5487 5487 5486 5485 5483 5482 5481 5481 5481 5482 5483
5490 5490 5492 5492 5492 5489 5485 5482 5479 5476 5468 5462 5460 5462 5488 5480 5487 5491 5489 5485 5485 5484 5482 5481 5480 5479 5477 5476 5475 5475 5476 5475 5475 5475 5475 5474 5473 5471 5470 5469 5469 5469 5469 5470
5478 5478 5477 5478 5477 5477 5469 5466 5460 5450 5448 5452 5457 5453 5472 5468 5478 5485 5483 5477 5474 5471 5470 5469 5467 5466 5465 5463 5463 5463 5463 5462 5462 5462 5461 5461 5460 5458 5457 5456 5455 5455 5456 5456
5470 5468 5464 5463 5464 5462 5459 5453 5446 5442 5431 5445 5442 5443 5456 5466 5465 5468 5469 5465 5459 5455 5454 5454 5454 5453 5452 5451 5451 5450 5450 5450 5449 5448 5448 5448 5447 5446 5444 5443 5442 5442 5442 5442
5457 5458 5452 5448 5451 5447 5443 5446 5441 5437 5432 5432 5421 5425 5448 5451 5448 5446 5446 5446 5445 5442 5440 5440 5441 5440 5440 5439 5438 5437 5438 5437 5436 5435 5434 5434 5433 5432 5431 5430 5430 5429 5429 5428
5439 5443 5439 5438 5435 5438 5431 5426 5429 5418 5407 5405 5414 5411 5429 5440 5439 5435 5434 5433 5431 5429 5427 5426 5426 5426 5426 5426 5426 5425 5424 5424 5423 5422 5421 5420 5419 5419 5418 5417 5416 5415 5415 5414
5425 5426 5425 5423 5425 5421 5420 5415 5406 5407 5409 5410 5410 5405 5421 5433 5431 5427 5422 5419 5417 5416 5414 5413 5413 5413 5413 5413 5412 5412 5411 5411 5409 5408 5407 5407 5406 5405 5404 5403 5402 5402 5401 5400
5412 5410 5409 5408 5405 5408 5403 5400 5397 5392 5393 5394 5396 5413 5416 5417 5416 5413 5410 5406 5403 5402 5401 5400 5400 5400 5400 5399 5399 5399 5398 5397 5395 5394 5393 5392 5391 5390 5390 5389 5388 5388 5387 5386
5397 5390 5389 5391 5391 5390 5390 5389 5384 5386 5380 5364 5368 5398 5407 5399 5396 5394 5392 5391 5389 5388 5386 5386 5386 5386 5385 5385 5385 5385 5384 5383 5382 5380 5379 5377 5376 5376 5375 5375 5374 5374 5373 5372
5385 5377 5379 5387 5383 5373 5372 5369 5367 5365 5358 5348 5356 5389 5392 5383 5383 5381 5378 5376 5374 5374 5373 5372 5372 5372 5372 5372 5371 5371 5370 5369 5368 5366 5365 5363 5362 5361 5361 5360 5360 5359 5359 5358
5380 5366 5372 5382 5382 5368 5358 5356 5350 5350 5351 5346 5353 5377 5385 5378 5373 5369 5366 5363 5361 5361 5361 5360 5359 5358 5359 5359 5358 5357 5356 5356 5354 5353 5351 5350 5349 5348 5347 5346 5346 5345 5345 5344
5369 5361 5353 5355 5357 5353 5351 5350 5342 5340 5346 5350 5362 5359 5372 5365 5359 5355 5351 5350 5351 5350 5349 5348 5347 5346 5346 5346 5346 5345 5344 5343 5342 5340 5338 5337 5336 5335 5334 5333 5332 5332 5331 5330
5352 5348 5343 5345 5347 5340 5342 5344 5340 5339 5340 5339 5344 5352 5358 5349 5342 5340 5337 5337 5338 5337 5337 5337 5336 5335 5334 5334 5334 5333 5332 5331 5329 5328 5327 5325 5324 5323 5321 5320 5320 5319 5318 5316
5338 5334 5334 5337 5332 5333 5340 5346 5338 5335 5332 5333 5339 5351 5343 5337 5334 5329 5325 5323 5323 5323 5323 5324 5323 5322 5322 5321 5321 5321 5320 5319 5317 5316 5315 5313 5312 5311 5309 5308 5307 5305 5304 5303
5329 5324 5318 5319 5320 5332 5357 5341 5337 5333 5333 5326 5329 5330 5327 5324 5320 5314 5311 5310 5310 5310 5311 5310 5309 5309 5309 5308 5308 5308 5307 5306 5304 5303 5302 5301 5299 5298 5297 5295 5294 5292 5291 5289
5324 5321 5311 5307 5308 5322 5339 5333 5321 5319 5326 5320 5316 5318 5312 5306 5305 5308 5305 5300 5299 5297 5296 5295 5295 5295 5295 5295 5295 5294 5293 5292 5291 5290 5290 5289 5287 5286 5284 5283 5281 5279 5278 5277
5312 5309 5305 5299 5308 5318 5338 5323 5313 5312 5318 5316 5306 5306 5300 5297 5302 5305 5296 5290 5287 5286 5284 5283 5282 5282 5282 5281 5281 5280 5279 5278 5278 5278 5277 5276 5275 5273 5272 5271 5269 5267 5266 5265
5303 5296 5295 5294 5297 5309 5318 5308 5307 5312 5322 5307 5298 5295 5288 5286 5290 5287 5281 5278 5276 5274 5273 5272 5270 5269 5269 5268 5267 5265 5264 5264 5264 5264 5263 5263 5262 5260 5259 5258 5257 5255 5254 5252
5299 5293 5286 5284 5289 5310 5307 5299 5303 5309 5299 5292 5286 5282 5277 5275 5273 5271 5270 5268 5266 5263 5262 5260 5258 5257 5257 5255 5254 5253 5251 5251 5250 5250 5250 5249 5248 5247 5247 5245 5244 5242 5240 5238
5293 5300 5296 5296 5312 5308 5293 5296 5293 5287 5284 5281 5276 5272 5267 5264 5262 5261 5259 5256 5253 5252 5250 5249 5247 5246 5244 5243 5242 5240 5240 5239 5237 5236 5236 5235 5235 5234 5234 5232 5231 5229 5227 5225
5286 5282 5284 5283 5296 5293 5286 5282 5280 5276 5273 5271 5267 5262 5258 5254 5253 5250 5248 5246 5243 5241 5239 5237 5236 5234 5233 5231 5230 5229 5228 5227 5225 5223 5222 5222 5221 5220 5219 5219 5218 5217 5215 5213
5286 5272 5274 5278 5285 5283 5284 5278 5275 5270 5265 5261 5257 5253 5249 5246 5243 5240 5238 5235 5232 5232 5229 5226 5224 5223 5222 5221 5219 5218 5216 5214 5213 5211 5209 5208 5207 5206 5206 5205 5205 5204 5204 5202
5273 5272 5273 5288 5285 5278 5281 5276 5269 5263 5259 5255 5250 5246 5242 5238 5235 5232 5228 5226 5223 5221 5219 5216 5214 5213 5212 5210 5208 5207 5205 5203 5201 5199 5197 5195 5193 5193 5192 5192 5192 5193 5193 5193